Lakeview AWS, OR

5:14 PM PDT on August 16, 2017 (GMT -0700)
Lake County

Weather History for KLKV - January, 2014

Change the Weather History Date:

Thursday, January 30, 2014

  Actual Average Record
Temperature  
Mean Temperature 35 °F -  
Max Temperature 44 °F 38 °F 59 °F (1940)
Min Temperature 26 °F 18 °F -10 °F (1937)
Degree Days  
Heating Degree Days 30    
Moisture  
Dew Point 25 °F    
Average Humidity 72    
Maximum Humidity 93    
Minimum Humidity 45    
Precipitation  
Precipitation 0.00 in - - ()
Sea Level Pressure  
Sea Level Pressure 29.87 in    
Wind  
Wind Speed 6 mph (WSW)    
Max Wind Speed 13 mph    
Max Gust Speed -    
Visibility 10 miles    
Events      
Averages and records for this station are not official NWS values.
T = Trace of Precipitation, MM = Missing Value Source: NWS Daily Summary

Daily Weather History Graph

Daily Weather History Graph

Search for Another Location

Airport or City:

Trip Planner

Search our weather history database for the weather conditions in past years. The results will help you decide how hot, cold, wet, or windy it might be!

Date:

Astronomy

Jan. 30, 2014 Rise Set
Actual Time 7:16 AM PST 5:13 PM PST
Civil Twilight 6:46 AM PST 5:43 PM PST
Nautical Twilight 6:13 AM PST 6:17 PM PST
Astronomical Twilight 5:40 AM PST 6:50 PM PST
Moon 6:45 AM PST (1/30) 5:33 PM PST (1/30)
Length of Visible Light 10h 56m
Length of Day
9h 57m
Waning Crescent, 0% of the Moon is Illuminated
Jan 30
Waning Crescent
Jan 30
New
Feb 6
First Quarter
Feb 14
Full
Feb 22
Last Quarter

Hourly Weather History & Observations

Time (PST) Temp. Windchill Dew Point Humidity Pressure Visibility Wind Dir Wind Speed Gust Speed Precip Events Conditions
12:15 AM 35.6 °F 30.7 °F 28.4 °F 75% 29.94 in 10.0 mi South 5.8 mph - N/A   Overcast
12:35 AM 35.6 °F 29.9 °F 28.4 °F 75% 29.94 in 10.0 mi WSW 6.9 mph - N/A   Overcast
12:55 AM 35.6 °F 28.6 °F 28.4 °F 75% 29.93 in 10.0 mi WSW 9.2 mph - N/A   Overcast
1:15 AM 35.6 °F 28.0 °F 28.4 °F 75% 29.92 in 10.0 mi SW 10.4 mph - N/A   Mostly Cloudy
1:35 AM 33.8 °F 26.4 °F 28.4 °F 81% 29.92 in 10.0 mi SW 9.2 mph - N/A   Mostly Cloudy
1:55 AM 35.6 °F 29.9 °F 28.4 °F 75% 29.91 in 10.0 mi SW 6.9 mph - N/A   Overcast
2:15 AM 33.8 °F 28.6 °F 28.4 °F 81% 29.91 in 10.0 mi SW 5.8 mph - N/A   Overcast
2:35 AM 33.8 °F 27.0 °F 28.4 °F 81% 29.91 in 10.0 mi SW 8.1 mph - N/A   Overcast
2:55 AM 33.8 °F 27.7 °F 28.4 °F 81% 29.90 in 10.0 mi SW 6.9 mph - N/A   Overcast
3:15 AM 33.8 °F 30.8 °F 28.4 °F 81% 29.90 in 10.0 mi WSW 3.5 mph - N/A   Overcast
3:35 AM 33.8 °F - 28.4 °F 81% 29.89 in 10.0 mi Calm Calm - N/A   Overcast
3:55 AM 33.8 °F 27.7 °F 28.4 °F 81% 29.88 in 10.0 mi SW 6.9 mph - N/A   Mostly Cloudy
4:15 AM 32.0 °F - 26.6 °F 80% 29.89 in 10.0 mi Calm Calm - N/A   Scattered Clouds
4:35 AM 32.0 °F - 28.4 °F 87% 29.90 in 10.0 mi Calm Calm - N/A   Mostly Cloudy
4:55 AM 32.0 °F - 28.4 °F 87% 29.89 in 10.0 mi Calm Calm - N/A   Overcast
5:15 AM 32.0 °F 26.4 °F 28.4 °F 87% 29.88 in 10.0 mi East 5.8 mph - N/A   Overcast
5:35 AM 32.0 °F - 28.4 °F 87% 29.88 in 10.0 mi Calm Calm - N/A   Overcast
5:55 AM 32.0 °F - 28.4 °F 87% 29.88 in 10.0 mi Calm Calm - N/A   Overcast
6:15 AM 30.2 °F 25.4 °F 28.4 °F 93% 29.88 in 10.0 mi SSE 4.6 mph - N/A   Overcast
6:35 AM 30.2 °F 24.3 °F 28.4 °F 93% 29.88 in 10.0 mi SSE 5.8 mph - N/A   Overcast
6:55 AM 30.2 °F 23.4 °F 26.6 °F 86% 29.87 in 10.0 mi SSE 6.9 mph - N/A   Mostly Cloudy
7:15 AM 30.2 °F 23.4 °F 26.6 °F 86% 29.86 in 10.0 mi SSE 6.9 mph - N/A   Partly Cloudy
7:35 AM 28.4 °F 23.3 °F 26.6 °F 93% 29.87 in 10.0 mi South 4.6 mph - N/A   Partly Cloudy
7:55 AM 28.4 °F 22.2 °F 26.6 °F 93% 29.87 in 10.0 mi SW 5.8 mph - N/A   Partly Cloudy
8:15 AM 28.4 °F 22.2 °F 26.6 °F 93% 29.88 in 10.0 mi SE 5.8 mph - N/A   Clear
8:35 AM 30.2 °F 25.4 °F 28.4 °F 93% 29.89 in 10.0 mi ESE 4.6 mph - N/A   Clear
8:55 AM 32.0 °F - 30.2 °F 93% 29.89 in 10.0 mi Calm Calm - N/A   Clear
9:15 AM 33.8 °F 27.7 °F 28.4 °F 81% 29.89 in 10.0 mi SE 6.9 mph - N/A   Clear
9:35 AM 33.8 °F 27.0 °F 28.4 °F 81% 29.89 in 10.0 mi SE 8.1 mph - N/A   Clear
9:55 AM 35.6 °F 31.7 °F 28.4 °F 75% 29.89 in 10.0 mi South 4.6 mph - N/A   Clear
10:15 AM 35.6 °F 31.7 °F 28.4 °F 75% 29.89 in 10.0 mi SSW 4.6 mph - N/A   Clear
10:35 AM 35.6 °F 29.9 °F 30.2 °F 81% 29.89 in 10.0 mi South 6.9 mph - N/A   Clear
10:55 AM 37.4 °F 32.8 °F 30.2 °F 75% 29.89 in 10.0 mi SSE 5.8 mph - N/A   Clear
11:15 AM 39.2 °F 35.9 °F 28.4 °F 65% 29.89 in 10.0 mi South 4.6 mph - N/A   Clear
11:35 AM 37.4 °F 34.9 °F 28.4 °F 70% 29.87 in 10.0 mi SSW 3.5 mph - N/A   Partly Cloudy
11:55 AM 42.8 °F - 26.6 °F 53% 29.86 in 10.0 mi Calm Calm - N/A   Scattered Clouds
12:15 PM 39.2 °F - 23.0 °F 52% 29.85 in 10.0 mi Calm Calm - N/A   Scattered Clouds
12:35 PM 42.8 °F 40.1 °F 24.8 °F 49% 29.84 in 10.0 mi West 4.6 mph - N/A   Mostly Cloudy
12:55 PM 44.6 °F 40.2 °F 26.6 °F 49% 29.83 in 10.0 mi WSW 8.1 mph - N/A   Mostly Cloudy
1:15 PM 42.8 °F 39.3 °F 24.8 °F 49% 29.82 in 10.0 mi SW 5.8 mph - N/A   Scattered Clouds
1:35 PM 42.8 °F 39.3 °F 23.0 °F 46% 29.82 in 10.0 mi WSW 5.8 mph - N/A   Scattered Clouds
1:55 PM 41.0 °F 37.1 °F 21.2 °F 45% 29.82 in 10.0 mi WSW 5.8 mph - N/A   Mostly Cloudy
2:15 PM 39.2 °F 32.5 °F 23.0 °F 52% 29.81 in 10.0 mi SSW 10.4 mph - N/A   Partly Cloudy
2:35 PM 39.2 °F 32.5 °F 23.0 °F 52% 29.81 in 10.0 mi West 10.4 mph - N/A   Partly Cloudy
2:55 PM 39.2 °F 31.6 °F 23.0 °F 52% 29.82 in 10.0 mi West 12.7 mph - N/A   Mostly Cloudy
3:15 PM 39.2 °F 32.5 °F 23.0 °F 52% 29.82 in 10.0 mi West 10.4 mph - N/A   Overcast
3:35 PM 37.4 °F 30.3 °F 23.0 °F 56% 29.82 in 10.0 mi West 10.4 mph - N/A   Scattered Clouds
3:55 PM 37.4 °F 29.8 °F 21.2 °F 52% 29.82 in 10.0 mi West 11.5 mph - N/A   Mostly Cloudy
4:15 PM 37.4 °F 30.8 °F 21.2 °F 52% 29.82 in 10.0 mi West 9.2 mph - N/A   Scattered Clouds
4:35 PM 35.6 °F 28.6 °F 23.0 °F 60% 29.82 in 10.0 mi West 9.2 mph - N/A   Scattered Clouds
4:55 PM 35.6 °F 29.2 °F 21.2 °F 56% 29.83 in 10.0 mi West 8.1 mph - N/A   Mostly Cloudy
5:15 PM 35.6 °F 29.2 °F 23.0 °F 60% 29.83 in 10.0 mi West 8.1 mph - N/A   Overcast
5:35 PM 33.8 °F 27.7 °F 23.0 °F 65% 29.83 in 10.0 mi WNW 6.9 mph - N/A   Overcast
5:55 PM 32.0 °F 26.4 °F 23.0 °F 69% 29.83 in 10.0 mi WNW 5.8 mph - N/A   Overcast
6:15 PM 32.0 °F 28.7 °F 24.8 °F 75% 29.83 in 10.0 mi WNW 3.5 mph - N/A   Overcast
6:35 PM 30.2 °F 26.7 °F 24.8 °F 80% 29.83 in 10.0 mi ENE 3.5 mph - N/A   Overcast
6:55 PM 32.0 °F - 24.8 °F 75% 29.83 in 10.0 mi Calm Calm - N/A   Overcast
7:15 PM 32.0 °F - 24.8 °F 75% 29.84 in 10.0 mi Calm Calm - N/A   Overcast
7:35 PM 32.0 °F - 26.6 °F 80% 29.84 in 10.0 mi Calm Calm - N/A   Overcast
7:55 PM 30.2 °F 25.4 °F 26.6 °F 86% 29.84 in 10.0 mi NNE 4.6 mph - N/A   Mostly Cloudy
8:15 PM 30.2 °F 23.4 °F 23.0 °F 75% 29.85 in 10.0 mi North 6.9 mph - N/A   Partly Cloudy
8:35 PM 30.2 °F 22.6 °F 21.2 °F 69% 29.85 in 10.0 mi North 8.1 mph - N/A   Clear
8:55 PM 30.2 °F 23.4 °F 19.4 °F 64% 29.85 in 10.0 mi North 6.9 mph - N/A   Clear
9:15 PM 30.2 °F 20.8 °F 19.4 °F 64% 29.86 in 10.0 mi North 11.5 mph - N/A   Clear
9:35 PM 30.2 °F 21.3 °F 19.4 °F 64% 29.86 in 10.0 mi North 10.4 mph - N/A   Clear
9:55 PM 28.4 °F 19.7 °F 19.4 °F 69% 29.86 in 10.0 mi North 9.2 mph - N/A   Clear
10:15 PM 28.4 °F 18.5 °F 19.4 °F 69% 29.86 in 10.0 mi North 11.5 mph - N/A   Clear
10:35 PM 28.4 °F 19.7 °F 19.4 °F 69% 29.87 in 10.0 mi North 9.2 mph - N/A   Clear
10:55 PM 28.4 °F 19.1 °F 19.4 °F 69% 29.87 in 10.0 mi North 10.4 mph - N/A   Clear
11:15 PM 26.6 °F 17.5 °F 19.4 °F 74% 29.87 in 10.0 mi North 9.2 mph - N/A   Clear
11:35 PM 26.6 °F 16.2 °F 19.4 °F 74% 29.87 in 10.0 mi North 11.5 mph - N/A   Clear
11:55 PM 26.6 °F 17.5 °F 19.4 °F 74% 29.87 in 10.0 mi North 9.2 mph - N/A   Clear